User: anonymous   Login
Location: Newark
(48.5667°N, 12.8167°E)
Time: 08:17:09
(UTC+00:00)
Language:

DUCHIFAT 1 - Orbit

View from above orbital plane
View from above orbital plane
View from above satellite
View from above satellite

Ground track
Ground track

The orbit data is extracted from the following two-line orbital elements,

1 40021U 14033M   19316.88353678 +.00000539 +00000-0 +60718-4 0  9999
2 40021 097.9282 241.9822 0011618 287.7066 072.2883 14.90733543293471
Epoch (UTC): 12 November 2019 21:12:17
Eccentricity: 0.0011618
inclination: 97.9282°
perigee height: 587 km
apogee height: 604 km
right ascension of ascending node: 241.9822°
argument of perigee: 287.7066°
revolutions per day: 14.90733543
mean anomaly at epoch: 72.2883°
orbit number at epoch: 29347

The dashed part of the orbit path shows where the satellite is in the earth's shadow,  

DLR